This is the latest recevied weather packets stored in our database for station/object HS2LXA-13. If no packets are shown the sender has not sent any weather packets the latest 10 day(s).
| Time | Temp. | Humidity | Pressure | Rain* | Wind** | Luminosity | Snow |
|---|---|---|---|---|---|---|---|
| 1777423885 | 34.44° C | 81% | 1010.7 hPa | 0 mm | - | 0 W/m² | - |
| 1777423284 | 32.22° C | 81% | 1010.6 hPa | 0 mm | - | 0 W/m² | - |
| 1777422684 | 33.89° C | 81% | 1010.3 hPa | 0 mm | - | 0 W/m² | - |
| 1777422083 | 33.33° C | 81% | 1010.1 hPa | 0 mm | - | 0 W/m² | - |
| 1777421480 | 31.11° C | 82% | 1009.8 hPa | 0 mm | - | 0 W/m² | - |
| 1777420883 | 31.67° C | 82% | 1009.6 hPa | 0 mm | - | 0 W/m² | - |
| 1777420278 | 31.11° C | 82% | 1009.6 hPa | 0 mm | - | 0 W/m² | - |
| 1777419678 | 30° C | 82% | 1009.5 hPa | 0 mm | - | 0 W/m² | - |
| 1777419075 | 30° C | 81% | 1009.2 hPa | 0 mm | - | 0 W/m² | - |
| 1777418474 | 30° C | 81% | 1009.1 hPa | 0 mm | - | 0 W/m² | - |
| 1777417872 | 30° C | 80% | 1008.9 hPa | 0 mm | - | 0 W/m² | - |
| 1777417272 | 30° C | 81% | 1008.9 hPa | 0 mm | - | 0 W/m² | - |
| 1777416670 | 30° C | 81% | 1008.6 hPa | 0 mm | - | 0 W/m² | - |
| 1777416068 | 30° C | 81% | 1008.6 hPa | 0 mm | - | 0 W/m² | - |
| 1777415465 | 30° C | 81% | 1008.5 hPa | 0 mm | - | 0 W/m² | - |
| 1777414863 | 30° C | 80% | 1008.3 hPa | 0 mm | - | 0 W/m² | - |
| 1777414261 | 30° C | 80% | 1008.3 hPa | 0 mm | - | 0 W/m² | - |
| 1777413661 | 30° C | 80% | 1008.2 hPa | 0 mm | - | 0 W/m² | - |
| 1777413058 | 30° C | 80% | 1008.2 hPa | 0 mm | - | 0 W/m² | - |
| 1777412456 | 30° C | 80% | 1008.2 hPa | 0 mm | - | 0 W/m² | - |
| 1777411860 | 30° C | 80% | 1008 hPa | 0 mm | - | 0 W/m² | - |
| 1777411254 | 30° C | 80% | 1007.9 hPa | 0 mm | - | 0 W/m² | - |
| 1777410653 | 30° C | 81% | 1008 hPa | 0 mm | - | 0 W/m² | - |
| 1777410054 | 30° C | 81% | 1007.9 hPa | 0 mm | - | 0 W/m² | - |
| 1777409451 | 30.56° C | 81% | 1007.8 hPa | 0 mm | - | 0 W/m² | - |
* Rain latest hour (hover to see other rain measurements)
** Current wind speed in m/s (hover to see current wind gust speed)